UAE857 OMDB-OKKK

Flight info

Callsign UAE857
Flight time 1h 14m
Altitude 38000
Route RIDAP M557 TUMAK M600 KUMBO A453 DEBTI
Aircraft A359/H-SDE2E3GHIJ3J4J5LM1ORWXY/LB1D1

Departure

Time 2026-04-24 11:46
Airport Dubai International Airport (OMDB)

Arrival

Time 2026-04-24 13:01
Airport Kuwait International Airport (OKKK)
Time Latitude Longitude Altitude Speed Heading
2026-04-24 10:27 25.24527 55.37050 26 ft 0 kts 211°
2026-04-24 11:33 25.24544 55.37061 27 ft 4 kts 211°
2026-04-24 11:34 25.24567 55.37077 27 ft 4 kts 211°
2026-04-24 11:34 25.24586 55.37089 27 ft 4 kts 200°
2026-04-24 11:34 25.24610 55.37091 28 ft 4 kts 151°
2026-04-24 11:34 25.24627 55.37073 28 ft 4 kts 122°
2026-04-24 11:35 25.24641 55.37048 27 ft 3 kts 122°
2026-04-24 11:35 25.24642 55.37046 28 ft 0 kts 122°
2026-04-24 11:39 25.24640 55.37049 28 ft 3 kts 122°
2026-04-24 11:40 25.24620 55.37084 28 ft 7 kts 122°
2026-04-24 11:40 25.24588 55.37141 27 ft 10 kts 122°
2026-04-24 11:40 25.24543 55.37219 27 ft 14 kts 122°
2026-04-24 11:40 25.24489 55.37313 27 ft 16 kts 122°
2026-04-24 11:41 25.24423 55.37427 27 ft 19 kts 121°
2026-04-24 11:41 25.24351 55.37557 27 ft 21 kts 122°
2026-04-24 11:41 25.24278 55.37686 27 ft 15 kts 120°
2026-04-24 11:41 25.24271 55.37762 28 ft 7 kts 66°
2026-04-24 11:42 25.24312 55.37809 28 ft 10 kts 41°
2026-04-24 11:42 25.24371 55.37854 28 ft 11 kts 33°
2026-04-24 11:42 25.24438 55.37903 30 ft 12 kts 34°
2026-04-24 11:42 25.24511 55.37959 31 ft 14 kts 35°
2026-04-24 11:43 25.24603 55.38028 29 ft 17 kts 32°
2026-04-24 11:43 25.24710 55.38095 32 ft 17 kts 14°
2026-04-24 11:43 25.24805 55.38029 31 ft 16 kts 302°
2026-04-24 11:43 25.24812 55.38017 31 ft 0 kts 302°
2026-04-24 11:45 25.24816 55.38009 31 ft 12 kts 302°
2026-04-24 11:46 25.25009 55.37663 32 ft 92 kts 301°
2026-04-24 11:46 25.25466 55.36842 31 ft 157 kts 303°
2026-04-24 11:46 25.26103 55.35758 602 ft 172 kts 305°
2026-04-24 11:46 25.26756 55.34633 1467 ft 178 kts 303°
2026-04-24 11:47 25.27447 55.33358 1949 ft 209 kts 302°
2026-04-24 11:47 25.28227 55.31926 2468 ft 225 kts 302°
2026-04-24 11:47 25.29055 55.30421 3261 ft 231 kts 301°
2026-04-24 11:47 25.29898 55.28896 4111 ft 235 kts 302°
2026-04-24 11:48 25.30500 55.27901 4678 ft 236 kts 305°
2026-04-24 11:48 25.31461 55.26418 5497 ft 239 kts 305°
2026-04-24 11:48 25.32435 55.24915 6291 ft 242 kts 304°
2026-04-24 11:48 25.33413 55.23395 7073 ft 244 kts 304°
2026-04-24 11:49 25.34401 55.21858 7880 ft 246 kts 304°
2026-04-24 11:49 25.35352 55.20270 8643 ft 249 kts 297°
2026-04-24 11:49 25.35837 55.18436 9294 ft 256 kts 274°
2026-04-24 11:49 25.35844 55.16397 9655 ft 274 kts 267°
2026-04-24 11:50 25.35741 55.14238 10140 ft 289 kts 266°
2026-04-24 11:50 25.35634 55.11944 10486 ft 309 kts 267°
2026-04-24 11:50 25.35530 55.09494 10818 ft 328 kts 267°
2026-04-24 11:50 25.35430 55.06929 11309 ft 339 kts 267°
2026-04-24 11:51 25.35331 55.04312 12000 ft 344 kts 267°
2026-04-24 11:51 25.35233 55.01662 12749 ft 347 kts 267°
2026-04-24 11:51 25.35135 54.98985 13552 ft 349 kts 267°
2026-04-24 11:51 25.35035 54.96293 14297 ft 353 kts 267°
2026-04-24 11:52 25.34936 54.93569 15019 ft 356 kts 267°
2026-04-24 11:52 25.35004 54.90823 15718 ft 360 kts 276°
2026-04-24 11:52 25.35578 54.88138 16409 ft 364 kts 285°
2026-04-24 11:52 25.36352 54.85432 17083 ft 368 kts 286°
2026-04-24 11:53 25.37142 54.82725 17738 ft 372 kts 286°
2026-04-24 11:53 25.37932 54.79996 18411 ft 374 kts 286°
2026-04-24 11:53 25.38723 54.77248 19104 ft 377 kts 285°
2026-04-24 11:53 25.39520 54.74470 19751 ft 380 kts 285°
2026-04-24 11:54 25.40322 54.71667 20385 ft 384 kts 285°
2026-04-24 11:54 25.41130 54.68842 21028 ft 387 kts 285°
2026-04-24 11:54 25.41944 54.65983 21626 ft 391 kts 285°
2026-04-24 11:54 25.42761 54.63104 22196 ft 395 kts 285°
2026-04-24 11:55 25.43592 54.60196 22787 ft 398 kts 285°
2026-04-24 11:55 25.44452 54.57265 23351 ft 402 kts 286°
2026-04-24 11:55 25.45329 54.54315 23906 ft 405 kts 286°
2026-04-24 11:55 25.46216 54.51339 24460 ft 409 kts 286°
2026-04-24 11:56 25.47097 54.48376 25003 ft 413 kts 286°
2026-04-24 11:56 25.48005 54.45311 25607 ft 415 kts 286°
2026-04-24 11:56 25.48909 54.42258 26167 ft 419 kts 286°
2026-04-24 11:56 25.49804 54.39227 26724 ft 421 kts 286°
2026-04-24 11:57 25.50715 54.36137 27281 ft 424 kts 286°
2026-04-24 11:57 25.51632 54.33021 27819 ft 427 kts 285°
2026-04-24 11:57 25.52553 54.29884 28350 ft 430 kts 285°
2026-04-24 11:57 25.53481 54.26723 28853 ft 433 kts 285°
2026-04-24 11:58 25.54415 54.23544 29359 ft 435 kts 285°
2026-04-24 11:58 25.55357 54.20346 29806 ft 439 kts 285°
2026-04-24 11:58 25.56302 54.17124 30267 ft 442 kts 285°
2026-04-24 11:58 25.57252 54.13881 30763 ft 444 kts 285°
2026-04-24 11:59 25.58205 54.10625 31239 ft 445 kts 285°
2026-04-24 11:59 25.59162 54.07359 31711 ft 447 kts 285°
2026-04-24 11:59 25.60122 54.04077 32168 ft 448 kts 286°
2026-04-24 11:59 25.61068 54.00786 32565 ft 450 kts 285°
2026-04-24 12:00 25.62008 53.97472 32964 ft 451 kts 285°
2026-04-24 12:00 25.62948 53.94149 33360 ft 453 kts 285°
2026-04-24 12:00 25.63890 53.90820 33740 ft 454 kts 286°
2026-04-24 12:00 25.64838 53.87476 34087 ft 455 kts 286°
2026-04-24 12:01 25.65786 53.84135 34456 ft 455 kts 286°
2026-04-24 12:01 25.66734 53.80793 34967 ft 452 kts 286°
2026-04-24 12:01 25.67672 53.77485 35468 ft 449 kts 286°
2026-04-24 12:01 25.68605 53.74197 35924 ft 446 kts 286°
2026-04-24 12:02 25.69535 53.70924 36373 ft 443 kts 286°
2026-04-24 12:02 25.70456 53.67671 36771 ft 442 kts 286°
2026-04-24 12:02 25.71357 53.64461 37149 ft 440 kts 286°
2026-04-24 12:02 25.72261 53.61235 37572 ft 436 kts 286°
2026-04-24 12:03 25.73158 53.58024 37830 ft 435 kts 286°
2026-04-24 12:03 25.74049 53.54837 37883 ft 431 kts 286°
2026-04-24 12:03 25.75816 53.48527 37878 ft 428 kts 286°
2026-04-24 12:04 25.77583 53.42228 37866 ft 427 kts 286°
2026-04-24 12:04 25.79347 53.35936 37882 ft 427 kts 286°
2026-04-24 12:05 25.81107 53.29644 37878 ft 427 kts 286°
2026-04-24 12:05 25.82867 53.23343 37882 ft 427 kts 286°
2026-04-24 12:06 25.84832 53.17133 37882 ft 427 kts 291°
2026-04-24 12:06 25.87222 53.11087 37888 ft 427 kts 292°
2026-04-24 12:07 25.89675 53.05072 37887 ft 427 kts 292°
2026-04-24 12:07 25.92130 52.99063 37883 ft 427 kts 292°
2026-04-24 12:08 25.94558 52.93093 37890 ft 427 kts 292°
2026-04-24 12:08 25.97000 52.87067 37890 ft 430 kts 292°
2026-04-24 12:09 25.99457 52.80993 37890 ft 431 kts 292°
2026-04-24 12:09 26.01919 52.74904 37899 ft 432 kts 291°
2026-04-24 12:10 26.04515 52.68880 37900 ft 433 kts 294°
2026-04-24 12:11 26.08633 52.59935 37896 ft 433 kts 294°
2026-04-24 12:11 26.11348 52.53954 37895 ft 433 kts 294°
2026-04-24 12:12 26.14053 52.47962 37895 ft 433 kts 294°
2026-04-24 12:12 26.16755 52.41962 37900 ft 433 kts 294°
2026-04-24 12:13 26.19454 52.35958 37899 ft 434 kts 294°
2026-04-24 12:13 26.22157 52.29943 37892 ft 434 kts 294°
2026-04-24 12:14 26.24809 52.23899 37888 ft 434 kts 293°
2026-04-24 12:14 26.27411 52.17835 37889 ft 434 kts 293°
2026-04-24 12:15 26.30017 52.11767 37867 ft 434 kts 293°
2026-04-24 12:15 26.32632 52.05704 37882 ft 434 kts 293°
2026-04-24 12:16 26.35256 51.99637 37904 ft 434 kts 293°
2026-04-24 12:16 26.37760 51.93523 37907 ft 433 kts 289°
2026-04-24 12:17 26.39924 51.87274 37906 ft 432 kts 288°
2026-04-24 12:17 26.42022 51.81041 37906 ft 432 kts 288°
2026-04-24 12:18 26.44119 51.74758 37919 ft 432 kts 288°
2026-04-24 12:18 26.46218 51.68471 37924 ft 433 kts 288°
2026-04-24 12:19 26.48320 51.62190 37916 ft 432 kts 288°
2026-04-24 12:19 26.50412 51.55913 37921 ft 432 kts 288°
2026-04-24 12:20 26.52495 51.49628 37923 ft 432 kts 287°
2026-04-24 12:20 26.54581 51.43337 37919 ft 432 kts 287°
2026-04-24 12:21 26.56665 51.37041 37915 ft 432 kts 287°
2026-04-24 12:21 26.58748 51.30755 37915 ft 432 kts 287°
2026-04-24 12:22 26.60834 51.24467 37916 ft 431 kts 287°
2026-04-24 12:22 26.62911 51.18193 37915 ft 431 kts 287°
2026-04-24 12:23 26.64989 51.11902 37903 ft 431 kts 287°
2026-04-24 12:23 26.67064 51.05610 37897 ft 432 kts 287°
2026-04-24 12:24 26.69140 50.99308 37888 ft 432 kts 287°
2026-04-24 12:24 26.71169 50.92993 37886 ft 432 kts 286°
2026-04-24 12:25 26.73181 50.86662 37885 ft 431 kts 286°
2026-04-24 12:25 26.75191 50.80344 37888 ft 431 kts 286°
2026-04-24 12:26 26.77203 50.74026 37889 ft 431 kts 286°
2026-04-24 12:26 26.79204 50.67742 37888 ft 432 kts 286°
2026-04-24 12:27 26.81259 50.61381 37891 ft 432 kts 287°
2026-04-24 12:27 26.83408 50.55090 37879 ft 433 kts 287°
2026-04-24 12:28 26.85569 50.48795 37876 ft 433 kts 287°
2026-04-24 12:28 26.88014 50.42619 37881 ft 438 kts 295°
2026-04-24 12:29 26.91100 50.36786 37881 ft 438 kts 296°
2026-04-24 12:29 26.94303 50.30971 37882 ft 438 kts 296°
2026-04-24 12:30 26.97515 50.25165 37888 ft 438 kts 296°
2026-04-24 12:30 27.00712 50.19351 37883 ft 438 kts 296°
2026-04-24 12:31 27.03921 50.13534 37889 ft 440 kts 298°
2026-04-24 12:31 27.07712 50.08093 37876 ft 444 kts 304°
2026-04-24 12:32 27.11711 50.02800 37885 ft 445 kts 304°
2026-04-24 12:32 27.15746 49.97525 37882 ft 445 kts 304°
2026-04-24 12:33 27.19769 49.92248 37883 ft 445 kts 304°
2026-04-24 12:33 27.23788 49.86956 37882 ft 445 kts 304°
2026-04-24 12:34 27.27797 49.81664 37888 ft 445 kts 303°
2026-04-24 12:34 27.31802 49.76369 37891 ft 445 kts 303°
2026-04-24 12:35 27.35809 49.71064 37896 ft 445 kts 303°
2026-04-24 12:35 27.39814 49.65759 37897 ft 445 kts 303°
2026-04-24 12:36 27.43141 49.61351 37897 ft 445 kts 303°
2026-04-24 12:36 27.47171 49.56063 37897 ft 447 kts 306°
2026-04-24 12:37 27.51853 49.51360 37896 ft 454 kts 313°
2026-04-24 12:37 27.56789 49.46896 37906 ft 455 kts 314°
2026-04-24 12:38 27.61763 49.42471 37914 ft 456 kts 314°
2026-04-24 12:38 27.66736 49.38030 37915 ft 456 kts 314°
2026-04-24 12:39 27.76668 49.29103 37915 ft 456 kts 314°
2026-04-24 12:40 27.81588 49.24671 37916 ft 455 kts 314°
2026-04-24 12:40 27.86556 49.20220 37903 ft 458 kts 316°
2026-04-24 12:41 27.91458 49.16724 37905 ft 464 kts 321°
2026-04-24 12:41 27.97043 49.13037 37907 ft 465 kts 322°
2026-04-24 12:41 27.99826 49.11230 37587 ft 458 kts 322°
2026-04-24 12:42 28.02596 49.09429 36715 ft 462 kts 321°
2026-04-24 12:42 28.05391 49.07598 35758 ft 466 kts 321°
2026-04-24 12:42 28.08207 49.05746 34805 ft 470 kts 322°
2026-04-24 12:42 28.11050 49.03873 33809 ft 475 kts 322°
2026-04-24 12:43 28.13920 49.01980 32751 ft 481 kts 322°
2026-04-24 12:43 28.16823 49.00064 31702 ft 485 kts 322°
2026-04-24 12:43 28.19750 48.98135 30681 ft 488 kts 322°
2026-04-24 12:43 28.22688 48.96201 29720 ft 489 kts 323°
2026-04-24 12:44 28.25631 48.94265 28826 ft 488 kts 323°
2026-04-24 12:44 28.28535 48.92358 27700 ft 476 kts 323°
2026-04-24 12:44 28.31389 48.90484 26110 ft 472 kts 323°
2026-04-24 12:44 28.34215 48.88618 24533 ft 468 kts 323°
2026-04-24 12:45 28.37003 48.86770 23195 ft 459 kts 323°
2026-04-24 12:45 28.39696 48.84976 22430 ft 438 kts 324°
2026-04-24 12:45 28.42291 48.83264 21916 ft 423 kts 324°
2026-04-24 12:45 28.44795 48.81611 20893 ft 418 kts 324°
2026-04-24 12:46 28.47335 48.79917 19733 ft 427 kts 324°
2026-04-24 12:46 28.49904 48.78201 18853 ft 428 kts 324°
2026-04-24 12:46 28.52456 48.76503 18234 ft 421 kts 325°
2026-04-24 12:46 28.54961 48.74840 17575 ft 414 kts 325°
2026-04-24 12:47 28.57257 48.72934 16563 ft 401 kts 313°
2026-04-24 12:47 28.59074 48.70633 15700 ft 381 kts 305°
2026-04-24 12:47 28.60708 48.68273 15163 ft 381 kts 304°
2026-04-24 12:47 28.62298 48.65916 14853 ft 369 kts 304°
2026-04-24 12:48 28.63818 48.63645 14605 ft 353 kts 303°
2026-04-24 12:48 28.65273 48.61458 14362 ft 341 kts 303°
2026-04-24 12:48 28.66678 48.59355 14122 ft 327 kts 303°
2026-04-24 12:48 28.68030 48.57332 13900 ft 314 kts 303°
2026-04-24 12:49 28.69332 48.55387 13693 ft 304 kts 303°
2026-04-24 12:49 28.70585 48.53503 13505 ft 292 kts 303°
2026-04-24 12:49 28.71790 48.51692 13293 ft 282 kts 303°
2026-04-24 12:49 28.72953 48.49919 13001 ft 278 kts 302°
2026-04-24 12:50 28.74087 48.48196 12634 ft 274 kts 302°
2026-04-24 12:50 28.75198 48.46442 12209 ft 273 kts 301°
2026-04-24 12:50 28.76289 48.44681 11796 ft 271 kts 301°
2026-04-24 12:50 28.77372 48.42926 11394 ft 269 kts 302°
2026-04-24 12:51 28.78459 48.41196 10974 ft 269 kts 302°
2026-04-24 12:51 28.79544 48.39466 10586 ft 268 kts 302°
2026-04-24 12:51 28.80626 48.37741 10180 ft 266 kts 303°
2026-04-24 12:51 28.81700 48.36030 9770 ft 265 kts 303°
2026-04-24 12:52 28.82785 48.34298 9184 ft 271 kts 303°
2026-04-24 12:52 28.83887 48.32541 8670 ft 273 kts 304°
2026-04-24 12:52 28.84995 48.30773 8164 ft 275 kts 304°
2026-04-24 12:52 28.86105 48.29001 7664 ft 275 kts 304°
2026-04-24 12:53 28.87222 48.27220 7156 ft 276 kts 304°
2026-04-24 12:53 28.88341 48.25431 6669 ft 277 kts 304°
2026-04-24 12:53 28.89439 48.23678 6162 ft 265 kts 305°
2026-04-24 12:53 28.90490 48.21999 5756 ft 254 kts 305°
2026-04-24 12:54 28.91483 48.20414 5660 ft 239 kts 305°
2026-04-24 12:54 28.92429 48.18897 5343 ft 231 kts 305°
2026-04-24 12:54 28.93344 48.17431 4873 ft 223 kts 306°
2026-04-24 12:54 28.94223 48.16025 4664 ft 212 kts 305°
2026-04-24 12:55 28.95155 48.14732 4568 ft 210 kts 314°
2026-04-24 12:55 28.96210 48.13570 4130 ft 212 kts 316°
2026-04-24 12:55 28.97302 48.12424 3675 ft 214 kts 317°
2026-04-24 12:55 28.98387 48.11305 3451 ft 203 kts 318°
2026-04-24 12:56 28.99405 48.10260 3355 ft 193 kts 318°
2026-04-24 12:56 29.00397 48.09249 3217 ft 191 kts 319°
2026-04-24 12:56 29.01391 48.08241 3107 ft 191 kts 319°
2026-04-24 12:56 29.02389 48.07233 2978 ft 193 kts 319°
2026-04-24 12:57 29.03400 48.06208 2881 ft 195 kts 319°
2026-04-24 12:57 29.04416 48.05178 2828 ft 195 kts 319°
2026-04-24 12:57 29.05436 48.04156 2761 ft 195 kts 319°
2026-04-24 12:57 29.06498 48.03198 2686 ft 193 kts 323°
2026-04-24 12:58 29.07610 48.02378 2418 ft 188 kts 331°
2026-04-24 12:58 29.08750 48.01721 2341 ft 182 kts 334°
2026-04-24 12:58 29.09911 48.01076 2162 ft 187 kts 333°
2026-04-24 12:58 29.11083 48.00437 1919 ft 187 kts 335°
2026-04-24 12:59 29.12262 47.99817 1678 ft 186 kts 334°
2026-04-24 12:59 29.13410 47.99203 1366 ft 181 kts 334°
2026-04-24 12:59 29.14523 47.98625 1151 ft 169 kts 335°
2026-04-24 12:59 29.15558 47.98097 992 ft 157 kts 335°
2026-04-24 13:00 29.16524 47.97577 783 ft 150 kts 333°
2026-04-24 13:00 29.17467 47.97039 591 ft 153 kts 334°
2026-04-24 13:00 29.18433 47.96536 384 ft 152 kts 335°
2026-04-24 13:00 29.19389 47.96026 239 ft 150 kts 334°
2026-04-24 13:01 29.20214 47.95590 226 ft 96 kts 335°
2026-04-24 13:01 29.20575 47.95396 221 ft 33 kts 335°
2026-04-24 13:01 29.20631 47.95366 225 ft 9 kts 335°
2026-04-24 13:01 29.20857 47.95246 226 ft 45 kts 335°
2026-04-24 13:02 29.21142 47.95107 222 ft 43 kts 336°
2026-04-24 13:02 29.21409 47.94959 227 ft 42 kts 334°
2026-04-24 13:02 29.21681 47.94814 224 ft 47 kts 335°
2026-04-24 13:02 29.21980 47.94654 231 ft 44 kts 335°
2026-04-24 13:03 29.22156 47.94724 225 ft 31 kts 63°
2026-04-24 13:03 29.22122 47.94937 214 ft 28 kts 134°
2026-04-24 13:03 29.22026 47.95095 217 ft 24 kts 82°
2026-04-24 13:03 29.22090 47.95285 212 ft 28 kts 66°
2026-04-24 13:04 29.22173 47.95501 198 ft 32 kts 66°
2026-04-24 13:04 29.22267 47.95744 178 ft 35 kts 66°
2026-04-24 13:04 29.22371 47.96007 169 ft 37 kts 66°
2026-04-24 13:04 29.22470 47.96253 183 ft 31 kts 65°